Other Public Products
Issued by NWS Charleston, SC

Current Version | Previous Version | Graphics & Text | Print | Product List | Glossary On
Versions: 1 2 3 4 5 6 7 8 9 10 11 12 13 14 15 16 17 18 19 20 21 22 23 24 25 26 27 28 29 30 31 32 33 34 35 36 37 38 39 40 41 42 43 44 45 46 47 48 49 50
863
FPUS82 KCHS 030427
OPUCHS

TEST...KCHS/KSAV Gateway Observations...TEST
National Weather Service Charleston SC
1100 PM EST FRI DEC 02 2016

NOTE: "fair" indicates few or no clouds below 12,000 feet with no
significant weather and/or obstructions to visibility.

SCZ050-WAZ558-NCZ071-TXZ119-213-PAZ071-DCZ001-FLZ074-172-MI076-
NYZ176-178-MAZ016-IL014-TNZ027-NJZ106-GAZ044-MD014-030500-
...Gateway Observations for Charleston International...

CITY           SKY/WX    TMP DP  RH WIND       PRES   REMARKS
Chas Airport   CLEAR     42  37  82 CALM      30.20F
Seattle        CLOUDY    47  44  90 S16G23    30.12R
Charlotte      MOCLDY    44  25  47 CALM      30.19S
Dallas DFW     CLOUDY    55  42  61 NE9       30.13F
Dallas Love    CLOUDY    56  41  57 E7        30.14F
Philladelphia  MOCLDY    43  29  57 W18       30.02S
Wash National  MOCLDY    45  26  47 W13G21    30.13S
Baltimore      MOCLDY    42  27  55 W9        30.09R
Miami          CLOUDY    76  69  79 NE7       30.09R
Detroit        CLOUDY    34  27  75 W8        30.24R WCI  27
Newark         MOCLDY    44  29  55 W15G24    29.93R
Laguardia      CLOUDY    46  29  51 W17G25    29.91R
J F K          MOCLDY    45  29  53 W21       29.92S
Boston Logan   MOCLDY    43  30  60 W14G22    29.73S
Ft. Lauderdale MOCLDY    76  69  79 NE10      30.07S
Chicago O`Hare CLOUDY    35  24  64 NW8       30.31R WCI  29
Chicago Midway CLOUDY    36  24  62 W9        30.32R WCI  29
Houston Bush   CLOUDY    53  47  79 NE15      30.04F
Houston Hobby  CLOUDY    56  48  74 E15       30.02F
Nashville      PTCLDY    43  29  57 NE8       30.32S
Atlanta        MOCLDY    46  33  60 W5        30.27R

$$

GAZ044-118-TXZ119-213-NCZ071-DCZ001-MDZ014-506-PAZ021-071-NJZ106-
NYZ176-178-MAZ106-OHZ011-021-055-MIZ076-KYZ091-ILZ014-INZ047-
MNZ060-030500-
...Gateway Observations for Savannah International...

CITY           SKY/WX    TMP DP  RH WIND       PRES   REMARKS
Savannah Arpt  NOT AVBL
Atlanta        MOCLDY    46  33  60 W5        30.27R
Charlotte      MOCLDY    44  25  47 CALM      30.19S
Dallas DFW     CLOUDY    55  42  61 NE9       30.13F
Houston Bush   CLOUDY    53  47  79 NE15      30.04F
Wash National  MOCLDY    45  26  47 W13G21    30.13S
Wash Dulles    PTCLDY    42  25  50 W14       30.11S
Baltimore      MOCLDY    42  27  55 W9        30.09R
Philadelphia   MOCLDY    43  29  57 W18       30.02S
Newark         MOCLDY    44  29  55 W15G24    29.93R
Laguardia      CLOUDY    46  29  51 W17G25    29.91R
J F K          MOCLDY    45  29  53 W21       29.92S
Boston         MOCLDY    43  30  60 W14G22    29.73S
Pittsburg      CLOUDY    38  32  79 W14       30.17R WCI  30
Akron          CLOUDY    36  28  73 W13       30.20S WCI  27
Cleveland      CLOUDY    38  28  67 W12       30.25R WCI  30
Cincinnati     CLOUDY    38  32  79 NW6       30.30S WCI  33
Columbus       CLOUDY    37  31  81 W7        30.28S WCI  31
Detroit        CLOUDY    34  27  75 W8        30.24R WCI  27
Chicago O`Hare CLOUDY    35  24  64 NW8       30.31R WCI  29
Minneapolis    CLOUDY    31  23  72 SW6       30.30S WCI  25
Indianapolis   CLOUDY    37  34  89 W6        30.31S WCI  32

$$




USA.gov is the U.S. government's official web portal to all federal, state and local government web resources and services.